Location: Crescent
(42.8242°N, 73.7329°W)
Time: 20:01:25
(UTC+00:00)

Vanguard 2 Rocket - Pass Details

Date: 21 February 2026
Orbit: 553 x 3287 km, 32.9° (Epoch: 5 March)

Event Time Altitude Azimuth Distance (km) Brightness Sun altitude
Rises 14:18:33 0° 209° (SSW) 6,830 11.5 24.1°
Reaches altitude 10° 14:23:42 10° 200° (SSW) 6,035 11.5 24.8°
Maximum altitude 14:39:42 32° 146° (SE) 4,559 13.0 26.9°
Drops below altitude 10° 14:54:21 10° 92° (E) 5,580 11.6 28.6°
Sets 14:58:46 0° 83° (E) 6,279 11.6 29.1°
